User: anonymous   Login
Location: ?????
(54.9266°N, 38.5527°E)
Time: 16:27:01
(UTC+00:00)
Language:

Cosmos 44 Rocket - Orbit

View from above orbital plane
View from above orbital plane
View from above satellite
View from above satellite

Ground track
Ground track

The orbit data is extracted from the following two-line orbital elements,

1 00877U 64053B   24165.94709816  .00000354  00000-0  95301-4 0  9996
2 00877  65.0786  27.8498 0069513 201.5999 158.2166 14.60361805174211
Epoch (UTC): 13 June 2024 22:43:49
Eccentricity: 0.0069513
inclination: 65.0786°
perigee height: 643 km
apogee height: 741 km
right ascension of ascending node: 27.8498°
argument of perigee: 201.5999°
revolutions per day: 14.60361805
mean anomaly at epoch: 158.2166°
orbit number at epoch: 17421

The dashed part of the orbit path shows where the satellite is in the earth's shadow,  

DLR